Location: Memphis International Airport Police
(35.0443°N, 89.9815°W)
Time: 19:54:23
(UTC+00:00)

Landsat 7 - Pass Details

Date: 26 September 2023
Orbit: 691 x 693 km, 97.9° (Epoch: 11 December)

Event Time Altitude Azimuth Distance (km) Brightness Sun altitude
Exits shadow 01:42:01 19° 181° (S) 1,625 5.5 -23.0°
Maximum altitude 01:45:21 63° 259° (W) 770 4.1 -23.6°
Drops below altitude 10° 01:50:01 10° 341° (NNW) 2,150 6.8 -24.6°
Sets 01:52:18 0° 344° (NNW) 3,071 7.6 -25.0°
